Flag for Canada Weather past 2 weeks in Calgary, Alberta, Canada

Now
46 °F

Passing clouds.


Feels Like: 43 °F
Forecast: 42 / 49 °F
Wind: 7 mph from North

Location: Calgary International

Current Time: Sep 4, 2015 at 12:00:38 AM

Latest Report: Sep 3, 2015 at 11:00 PM


Visibility: 15 mi

Pressure: 30.04 "Hg (26.40 "Hg at 1063m altitude)

Humidity: 87%

Dew point: 43 °F

Location of CalgaryLocation

Historic Weather in Calgary — Graph

°F

Calgary temperature yesterday

Maximum temperature yesterday: 57 °F (at 1:00 PM)
Minimum temperature yesterday: 39 °F (at 7:00 AM)
Average temperature yesterday: 48 °F

Past Weeks' High & Low Weather Summary

 TemperatureHumidityPressure
High79 °F (Aug 25, 2:00 PM)100% (Aug 21, 5:47 AM)30.29 "Hg (Aug 21, 5:47 AM)
Low37 °F (Aug 21, 4:00 PM)18% (Aug 25, 3:00 PM)29.49 "Hg (Aug 29, 6:00 PM)
Average59 °F58%29.87 "Hg
* Reported Aug 19 11:00 PM — Sep 3 11:00 PM, Calgary, Weather by CustomWeather, © 2015

Note: Actual official high and low records may vary slightly from our data, if they occured in-between our weather recording intervals... More about our weather records

Advertising

Calgary weather history for previous 24 hours

 ConditionsComfort  
Time TempWeatherWind HumidityBarometerVisibility
11:00 PM
Thu, Sep 3
46 °FPassing clouds.7 mph87%30.04 "Hg15 mi
10:00 PM46 °FPassing clouds.5 mph87%30.04 "Hg15 mi
9:00 PM46 °FPartly sunny.7 mph93%30.02 "Hg15 mi
8:00 PM48 °FPartly sunny.10 mph87%30.02 "Hg20 mi
7:00 PM52 °FPartly sunny.8 mph72%30.01 "Hg30 mi
6:00 PM54 °FPassing clouds.6 mph72%30.00 "Hg30 mi
5:00 PM52 °FBroken clouds.5 mph77%30.01 "Hg30 mi
4:00 PM48 °FThunderstorms. Scattered clouds.5 mph82%30.02 "Hg15 mi
3:00 PM54 °FSprinkles. Partly sunny.9 mph63%29.99 "Hg15 mi
2:51 PM55 °FSprinkles. Partly sunny.12 mph59%29.98 "Hg15 mi
2:00 PM55 °FPartly sunny.12 mph59%29.99 "Hg15 mi
1:00 PM57 °FScattered clouds.12 mph51%29.98 "Hg40 mi
12:00 PM54 °FScattered clouds.10 mph54%30.00 "Hg40 mi
11:00 AM52 °FScattered clouds.6 mph58%29.99 "Hg40 mi
10:00 AM48 °FPartly sunny.3 mph62%30.00 "Hg40 mi
9:00 AM45 °FScattered clouds.2 mph71%29.99 "Hg40 mi
8:00 AM41 °FBroken clouds.3 mph76%29.98 "Hg40 mi
7:00 AM39 °FPartly cloudy.5 mph81%29.97 "Hg30 mi
6:00 AM43 °FPassing clouds.No wind76%29.96 "Hg15 mi
5:00 AM43 °FPassing clouds.3 mph76%29.95 "Hg15 mi
4:00 AM45 °FPassing clouds.2 mph66%29.94 "Hg15 mi
3:00 AM41 °FClear.3 mph81%29.92 "Hg15 mi
2:00 AM43 °FClear.10 mph81%29.89 "Hg15 mi
1:00 AM45 °FPassing clouds.12 mph76%29.89 "Hg15 mi
12:00 AM48 °FPassing clouds.10 mph66%29.88 "Hg15 mi
Weather by CustomWeather, © 2015

See weather overviewHow to use our weather pages